Regional Weather Roundup
Issued by NWS Cleveland, OH

Home | Current Version | Previous Version | Graphics & Text | Print | Product List | Glossary On
Versions: 1 2 3 4 5 6 7 8 9 10 11 12 13 14 15 16 17 18 19 20 21 22 23 24 25 26 27 28 29 30 31 32 33 34 35 36 37 38 39 40 41 42 43 44 45 46 47 48 49 50
000
ASUS41 KCLE 282310
RWRCLE
OHIO REGIONAL WEATHER ROUNDUP
NATIONAL WEATHER SERVICE WILMINGTON, OH
600 PM EST SUN DEC 28 2014

NOTE: "FAIR" INDICATES FEW OR NO CLOUDS BELOW 12,000 FEET WITH NO
SIGNIFICANT WEATHER AND/OR OBSTRUCTIONS TO VISIBILITY.

OHZ001>008-015>018-024>027-034-035-043-044-290000-
   NORTHWEST OHIO

CITY           SKY/WX    TMP DP  RH WIND       PRES   REMARKS
DEFIANCE       PTCLDY    33  25  72 CALM      30.18R
FINDLAY        CLOUDY    33  27  78 W7        30.15R WCI  27
TOLEDO EXPRESS MOCLDY    31  24  75 W6        30.16R WCI  25
TOLEDO METCALF CLOUDY    32  24  72 W7        30.17R WCI  26
LIMA           CLOUDY    35  27  72 W8        30.15R WCI  29
$$

OHZ009>014-019>023-028>033-038-089-290000-
   NORTHEAST OHIO

CITY           SKY/WX    TMP DP  RH WIND       PRES   REMARKS
CLE-HOPKINS    CLOUDY    34  28  79 W7        30.16R WCI  28
CLE-LAKEFRONT  CLOUDY    36  32  85 W10       30.13R
CUY CO. ARPT   CLOUDY    37  34  87 W12       30.11S
LORAIN-ELYRIA  CLOUDY    34  29  82 NW5       30.14R WCI  30
ASHTABULA      CLOUDY    34  29  82 W3        30.10R
AKRON-CANTON   CLOUDY    36  29  75 W5        30.10R
WOOSTER        CLOUDY    35  30  82 NW6       30.12R
MANSFIELD      CLOUDY    34  30  85 W5        30.12R WCI  30
YOUNGSTOWN     CLOUDY    34  31  88 CALM      30.10R
$$

OHZ042-051>053-060>062-070>072-077>081-290000-
  SOUTHWEST OHIO

CITY           SKY/WX    TMP DP  RH WIND       PRES   REMARKS
CINC-COVINGTON CLOUDY    36  27  69 N6        30.16R
CINC-LUNKEN    CLOUDY    36  30  79 NW5       30.19R
HAMILTON       CLOUDY    36  30  79 NW6       30.19R
DAYTON         CLOUDY    34  28  79 NW6       30.17R WCI  29
WRIGHT-PAT AFB CLOUDY    35  29  80 NW6       30.16R WCI  30
DAYTON GENERAL CLOUDY    36  28  73 NW7       30.16R
WILMINGTON     CLOUDY    35  28  75 W3        30.15R
$$

OHZ036-037-039>041-045>050-054>059-063>069-073>076-082>088-290000-
  CENTRAL AND SOUTHEAST OHIO

CITY           SKY/WX    TMP DP  RH WIND       PRES   REMARKS
COLUMBUS       CLOUDY    36  29  75 NW6       30.14R
OSU AIRPORT    CLOUDY    36  29  75 NW8       30.14R
BOLTON FIELD   CLOUDY    36  30  80 NW6       30.15R
RICKENBACK AFB CLOUDY    36  31  79 NW5       30.15R
NEWARK         CLOUDY    37  30  75 NW5       30.13R
MARION         CLOUDY    34  29  82 NW7       30.14R WCI  28
LANCASTER      CLOUDY    37  30  75 CALM      30.14R
ZANESVILLE     CLOUDY    36  29  75 W5        30.12R
NEW PHILLY     CLOUDY    38  30  73 CALM      30.12R
$$


USA.gov is the U.S. government's official web portal to all federal, state and local government web resources and services.